2019,02,06,00,00,00,116.7,,,,,,,,,,,,,,
2019,02,06,00,01,00,129.7,,,,,,,,,,,,,,
2019,02,06,00,02,00,138.1,,,,,,,,,,,,,,
2019,02,06,00,03,00,116.7,,,,,,,,,,,,,,
2019,02,06,00,04,00,112.9,,,,,,,,,,,,,,
2019,02,06,00,05,00,120.3,,,,,,,,,,,,,,
2019,02,06,00,06,00,101.0,,,,,,,,,,,,,,
2019,02,06,00,07,00,86.8,,,,,,,,,,,,,,
2019,02,06,00,08,00,109.5,,,,,,,,,,,,,,
2019,02,06,00,09,00,113.8,,,,,,,,,,,,,,
2019,02,06,00,10,00,99.8,,,,,,,,,,,,,,
2019,02,06,00,11,00,89.1,,,,,,,,,,,,,,
2019,02,06,00,12,00,104.3,,,,,,,,,,,,,,
2019,02,06,00,13,00,103.8,,,,,,,,,,,,,,
2019,02,06,00,14,00,94.9,,,,,,,,,,,,,,
2019,02,06,00,15,00,81.7,,,,,,,,,,,,,,
2019,02,06,00,16,00,80.1,,,,,,,,,,,,,,
2019,02,06,00,17,00,86.4,,,,,,,,,,,,,,
2019,02,06,00,18,00,96.3,,,,,,,,,,,,,,
2019,02,06,00,19,00,88.7,,,,,,,,,,,,,,
2019,02,06,00,20,00,101.9,,,,,,,,,,,,,,
2019,02,06,00,21,00,116.0,,,,,,,,,,,,,,
2019,02,06,00,22,00,85.9,,,,,,,,,,,,,,
2019,02,06,00,23,00,81.9,,,,,,,,,,,,,,
2019,02,06,00,24,00,89.4,,,,,,,,,,,,,,
2019,02,06,00,25,00,85.8,,,,,,,,,,,,,,
2019,02,06,00,26,00,87.0,,,,,,,,,,,,,,
2019,02,06,00,27,00,113.0,,,,,,,,,,,,,,
2019,02,06,00,28,00,108.6,,,,,,,,,,,,,,
2019,02,06,00,29,00,104.5,,,,,,,,,,,,,,
2019,02,06,00,30,00,117.6,,,,,,,,,,,,,,
2019,02,06,00,31,00,100.0,,,,,,,,,,,,,,
2019,02,06,00,32,00,81.5,,,,,,,,,,,,,,
2019,02,06,00,33,00,80.2,,,,,,,,,,,,,,
2019,02,06,00,34,00,83.8,,,,,,,,,,,,,,
2019,02,06,00,35,00,104.1,,,,,,,,,,,,,,
2019,02,06,00,36,00,109.6,,,,,,,,,,,,,,
2019,02,06,00,37,00,116.3,,,,,,,,,,,,,,
2019,02,06,00,38,00,83.4,,,,,,,,,,,,,,
2019,02,06,00,39,00,82.5,,,,,,,,,,,,,,
2019,02,06,00,40,00,79.6,,,,,,,,,,,,,,
2019,02,06,00,41,00,80.6,,,,,,,,,,,,,,
2019,02,06,00,42,00,90.0,,,,,,,,,,,,,,
2019,02,06,00,43,00,98.6,,,,,,,,,,,,,,
2019,02,06,00,44,00,98.5,,,,,,,,,,,,,,
2019,02,06,00,45,00,106.2,,,,,,,,,,,,,,
2019,02,06,00,46,00,116.2,,,,,,,,,,,,,,
2019,02,06,00,47,00,101.9,,,,,,,,,,,,,,
2019,02,06,00,48,00,84.8,,,,,,,,,,,,,,
2019,02,06,00,49,00,96.7,,,,,,,,,,,,,,
2019,02,06,00,50,00,82.7,,,,,,,,,,,,,,
2019,02,06,00,51,00,80.8,,,,,,,,,,,,,,
2019,02,06,00,52,00,80.0,,,,,,,,,,,,,,
2019,02,06,00,53,00,106.8,,,,,,,,,,,,,,
2019,02,06,00,54,00,93.9,,,,,,,,,,,,,,
2019,02,06,00,55,00,80.3,,,,,,,,,,,,,,
2019,02,06,00,56,00,77.5,,,,,,,,,,,,,,
2019,02,06,00,57,00,90.4,,,,,,,,,,,,,,
2019,02,06,00,58,00,125.1,,,,,,,,,,,,,,
2019,02,06,00,59,00,156.5,,,,,,,,,,,,,,
2019,02,06,01,00,00,123.6,,,,,,,,,,,,,,
2019,02,06,01,01,00,119.1,,,,,,,,,,,,,,
2019,02,06,01,02,00,107.3,,,,,,,,,,,,,,
2019,02,06,01,03,00,85.0,,,,,,,,,,,,,,
2019,02,06,01,04,00,79.2,,,,,,,,,,,,,,
2019,02,06,01,05,00,79.9,,,,,,,,,,,,,,
2019,02,06,01,06,00,92.3,,,,,,,,,,,,,,
2019,02,06,01,07,00,113.2,,,,,,,,,,,,,,
2019,02,06,01,08,00,110.5,,,,,,,,,,,,,,
2019,02,06,01,09,00,116.7,,,,,,,,,,,,,,
2019,02,06,01,10,00,108.3,,,,,,,,,,,,,,
2019,02,06,01,11,00,93.9,,,,,,,,,,,,,,
2019,02,06,01,12,00,98.4,,,,,,,,,,,,,,
2019,02,06,01,13,00,99.7,,,,,,,,,,,,,,
2019,02,06,01,14,00,83.7,,,,,,,,,,,,,,
2019,02,06,01,15,00,73.7,,,,,,,,,,,,,,
2019,02,06,01,16,00,79.0,,,,,,,,,,,,,,
2019,02,06,01,17,00,82.5,,,,,,,,,,,,,,
2019,02,06,01,18,00,112.3,,,,,,,,,,,,,,
2019,02,06,01,19,00,97.9,,,,,,,,,,,,,,
2019,02,06,01,20,00,95.9,,,,,,,,,,,,,,
2019,02,06,01,21,00,84.6,,,,,,,,,,,,,,
2019,02,06,01,22,00,79.5,,,,,,,,,,,,,,
2019,02,06,01,23,00,79.0,,,,,,,,,,,,,,
2019,02,06,01,24,00,79.2,,,,,,,,,,,,,,
2019,02,06,01,25,00,80.8,,,,,,,,,,,,,,
2019,02,06,01,26,00,80.9,,,,,,,,,,,,,,
2019,02,06,01,27,00,80.1,,,,,,,,,,,,,,
2019,02,06,01,28,00,77.2,,,,,,,,,,,,,,
2019,02,06,01,29,00,82.5,,,,,,,,,,,,,,
2019,02,06,01,30,00,104.6,,,,,,,,,,,,,,
2019,02,06,01,31,00,90.7,,,,,,,,,,,,,,
2019,02,06,01,32,00,111.2,,,,,,,,,,,,,,
2019,02,06,01,33,00,102.7,,,,,,,,,,,,,,
2019,02,06,01,34,00,89.8,,,,,,,,,,,,,,
2019,02,06,01,35,00,82.9,,,,,,,,,,,,,,
2019,02,06,01,36,00,76.6,,,,,,,,,,,,,,
2019,02,06,01,37,00,75.5,,,,,,,,,,,,,,
2019,02,06,01,38,00,80.9,,,,,,,,,,,,,,
2019,02,06,01,39,00,98.5,,,,,,,,,,,,,,
2019,02,06,01,40,00,97.8,,,,,,,,,,,,,,
2019,02,06,01,41,00,75.7,,,,,,,,,,,,,,
2019,02,06,01,42,00,71.9,,,,,,,,,,,,,,
2019,02,06,01,43,00,77.7,,,,,,,,,,,,,,
2019,02,06,01,44,00,75.5,,,,,,,,,,,,,,
2019,02,06,01,45,00,78.1,,,,,,,,,,,,,,
2019,02,06,01,46,00,83.3,,,,,,,,,,,,,,
2019,02,06,01,47,00,80.0,,,,,,,,,,,,,,
2019,02,06,01,48,00,77.9,,,,,,,,,,,,,,
2019,02,06,01,49,00,80.6,,,,,,,,,,,,,,
2019,02,06,01,50,00,81.5,,,,,,,,,,,,,,
2019,02,06,01,51,00,78.3,,,,,,,,,,,,,,
2019,02,06,01,52,00,88.4,,,,,,,,,,,,,,
2019,02,06,01,53,00,82.2,,,,,,,,,,,,,,
2019,02,06,01,54,00,86.0,,,,,,,,,,,,,,
2019,02,06,01,55,00,80.7,,,,,,,,,,,,,,
2019,02,06,01,56,00,82.7,,,,,,,,,,,,,,
2019,02,06,01,57,00,85.0,,,,,,,,,,,,,,
2019,02,06,01,58,00,91.5,,,,,,,,,,,,,,
2019,02,06,01,59,00,77.1,,,,,,,,,,,,,,
2019,02,06,02,00,00,71.9,,,,,,,,,,,,,,
2019,02,06,02,01,00,80.9,,,,,,,,,,,,,,
2019,02,06,02,02,00,74.3,,,,,,,,,,,,,,
2019,02,06,02,03,00,71.9,,,,,,,,,,,,,,
2019,02,06,02,04,00,71.0,,,,,,,,,,,,,,
2019,02,06,02,05,00,76.5,,,,,,,,,,,,,,
2019,02,06,02,06,00,84.9,,,,,,,,,,,,,,
2019,02,06,02,07,00,91.3,,,,,,,,,,,,,,
2019,02,06,02,08,00,91.4,,,,,,,,,,,,,,
2019,02,06,02,09,00,102.3,,,,,,,,,,,,,,
2019,02,06,02,10,00,,,,,,,,,,,,,,,
2019,02,06,02,11,00,,,,,,,,,,,,,,,
2019,02,06,02,12,00,,,,,,,,,,,,,,,
2019,02,06,02,13,00,,,,,,,,,,,,,,,
2019,02,06,02,14,00,,,,,,,,,,,,,,,
2019,02,06,02,15,00,,,,,,,,,,,,,,,
2019,02,06,02,16,00,,,,,,,,,,,,,,,
2019,02,06,02,17,00,,,,,,,,,,,,,,,
2019,02,06,02,18,00,,,,,,,,,,,,,,,
2019,02,06,02,19,00,,,,,,,,,,,,,,,
2019,02,06,02,20,00,,,,,,,,,,,,,,,
2019,02,06,02,21,00,,,,,,,,,,,,,,,
2019,02,06,02,22,00,,,,,,,,,,,,,,,
2019,02,06,02,23,00,,,,,,,,,,,,,,,
2019,02,06,02,24,00,,,,,,,,,,,,,,,
2019,02,06,02,25,00,,,,,,,,,,,,,,,
2019,02,06,02,26,00,,,,,,,,,,,,,,,
2019,02,06,02,27,00,113.0,,,,,,,,,,,,,,
2019,02,06,02,28,00,86.8,,,,,,,,,,,,,,
2019,02,06,02,29,00,81.6,,,,,,,,,,,,,,
2019,02,06,02,30,00,81.2,,,,,,,,,,,,,,
2019,02,06,02,31,00,88.9,,,,,,,,,,,,,,
2019,02,06,02,32,00,112.1,,,,,,,,,,,,,,
2019,02,06,02,33,00,122.1,,,,,,,,,,,,,,
2019,02,06,02,34,00,127.6,,,,,,,,,,,,,,
2019,02,06,02,35,00,114.3,,,,,,,,,,,,,,
2019,02,06,02,36,00,144.4,,,,,,,,,,,,,,
2019,02,06,02,37,00,153.9,,,,,,,,,,,,,,
2019,02,06,02,38,00,138.6,,,,,,,,,,,,,,
2019,02,06,02,39,00,100.8,,,,,,,,,,,,,,
2019,02,06,02,40,00,108.4,,,,,,,,,,,,,,
2019,02,06,02,41,00,111.3,,,,,,,,,,,,,,
2019,02,06,02,42,00,119.4,,,,,,,,,,,,,,
2019,02,06,02,43,00,143.6,,,,,,,,,,,,,,
2019,02,06,02,44,00,130.9,,,,,,,,,,,,,,
2019,02,06,02,45,00,107.4,,,,,,,,,,,,,,
2019,02,06,02,46,00,113.6,,,,,,,,,,,,,,
2019,02,06,02,47,00,115.4,,,,,,,,,,,,,,
2019,02,06,02,48,00,104.2,,,,,,,,,,,,,,
2019,02,06,02,49,00,119.3,,,,,,,,,,,,,,
2019,02,06,02,50,00,143.9,,,,,,,,,,,,,,
2019,02,06,02,51,00,150.1,,,,,,,,,,,,,,
2019,02,06,02,52,00,129.8,,,,,,,,,,,,,,
2019,02,06,02,53,00,128.9,,,,,,,,,,,,,,
2019,02,06,02,54,00,120.2,,,,,,,,,,,,,,
2019,02,06,02,55,00,118.2,,,,,,,,,,,,,,
2019,02,06,02,56,00,120.3,,,,,,,,,,,,,,
2019,02,06,02,57,00,125.4,,,,,,,,,,,,,,
2019,02,06,02,58,00,123.8,,,,,,,,,,,,,,
2019,02,06,02,59,00,109.7,,,,,,,,,,,,,,
2019,02,06,03,00,00,113.9,,,,,,,,,,,,,,
2019,02,06,03,01,00,106.7,,,,,,,,,,,,,,
2019,02,06,03,02,00,84.5,,,,,,,,,,,,,,
2019,02,06,03,03,00,98.9,,,,,,,,,,,,,,
2019,02,06,03,04,00,107.8,,,,,,,,,,,,,,
2019,02,06,03,05,00,93.4,,,,,,,,,,,,,,
2019,02,06,03,06,00,94.9,,,,,,,,,,,,,,
2019,02,06,03,07,00,95.0,,,,,,,,,,,,,,
2019,02,06,03,08,00,92.8,,,,,,,,,,,,,,
2019,02,06,03,09,00,92.2,,,,,,,,,,,,,,
2019,02,06,03,10,00,106.5,,,,,,,,,,,,,,
2019,02,06,03,11,00,133.2,,,,,,,,,,,,,,
2019,02,06,03,12,00,134.7,,,,,,,,,,,,,,
2019,02,06,03,13,00,117.6,,,,,,,,,,,,,,
2019,02,06,03,14,00,90.7,,,,,,,,,,,,,,
2019,02,06,03,15,00,73.8,,,,,,,,,,,,,,
2019,02,06,03,16,00,76.0,,,,,,,,,,,,,,
2019,02,06,03,17,00,79.3,,,,,,,,,,,,,,
2019,02,06,03,18,00,107.6,,,,,,,,,,,,,,
2019,02,06,03,19,00,137.6,,,,,,,,,,,,,,
2019,02,06,03,20,00,100.1,,,,,,,,,,,,,,
2019,02,06,03,21,00,80.1,,,,,,,,,,,,,,
2019,02,06,03,22,00,86.7,,,,,,,,,,,,,,
2019,02,06,03,23,00,94.4,,,,,,,,,,,,,,
2019,02,06,03,24,00,113.7,,,,,,,,,,,,,,
2019,02,06,03,25,00,103.3,,,,,,,,,,,,,,
2019,02,06,03,26,00,84.9,,,,,,,,,,,,,,
2019,02,06,03,27,00,80.8,,,,,,,,,,,,,,
2019,02,06,03,28,00,102.2,,,,,,,,,,,,,,
2019,02,06,03,29,00,125.9,,,,,,,,,,,,,,
2019,02,06,03,30,00,103.7,,,,,,,,,,,,,,
2019,02,06,03,31,00,102.8,,,,,,,,,,,,,,
2019,02,06,03,32,00,89.1,,,,,,,,,,,,,,
2019,02,06,03,33,00,83.8,,,,,,,,,,,,,,
2019,02,06,03,34,00,108.2,,,,,,,,,,,,,,
2019,02,06,03,35,00,119.7,,,,,,,,,,,,,,
2019,02,06,03,36,00,116.6,,,,,,,,,,,,,,
2019,02,06,03,37,00,110.0,,,,,,,,,,,,,,
2019,02,06,03,38,00,86.4,,,,,,,,,,,,,,
2019,02,06,03,39,00,94.9,,,,,,,,,,,,,,
2019,02,06,03,40,00,104.6,,,,,,,,,,,,,,
2019,02,06,03,41,00,94.8,,,,,,,,,,,,,,
2019,02,06,03,42,00,74.1,,,,,,,,,,,,,,
2019,02,06,03,43,00,79.8,,,,,,,,,,,,,,
2019,02,06,03,44,00,112.5,,,,,,,,,,,,,,
2019,02,06,03,45,00,135.9,,,,,,,,,,,,,,
2019,02,06,03,46,00,103.1,,,,,,,,,,,,,,
2019,02,06,03,47,00,91.6,,,,,,,,,,,,,,
2019,02,06,03,48,00,82.4,,,,,,,,,,,,,,
2019,02,06,03,49,00,115.3,,,,,,,,,,,,,,
2019,02,06,03,50,00,107.4,,,,,,,,,,,,,,
2019,02,06,03,51,00,82.7,,,,,,,,,,,,,,
2019,02,06,03,52,00,77.8,,,,,,,,,,,,,,
2019,02,06,03,53,00,107.5,,,,,,,,,,,,,,
2019,02,06,03,54,00,125.0,,,,,,,,,,,,,,
2019,02,06,03,55,00,119.3,,,,,,,,,,,,,,
2019,02,06,03,56,00,119.3,,,,,,,,,,,,,,
2019,02,06,03,57,00,88.2,,,,,,,,,,,,,,
2019,02,06,03,58,00,83.5,,,,,,,,,,,,,,
2019,02,06,03,59,00,81.0,,,,,,,,,,,,,,
2019,02,06,04,00,00,87.8,,,,,,,,,,,,,,
2019,02,06,04,01,00,100.3,,,,,,,,,,,,,,
2019,02,06,04,02,00,158.4,,,,,,,,,,,,,,
2019,02,06,04,03,00,133.9,,,,,,,,,,,,,,
2019,02,06,04,04,00,112.5,,,,,,,,,,,,,,
2019,02,06,04,05,00,104.1,,,,,,,,,,,,,,
2019,02,06,04,06,00,101.7,,,,,,,,,,,,,,
2019,02,06,04,07,00,102.0,,,,,,,,,,,,,,
2019,02,06,04,08,00,80.6,,,,,,,,,,,,,,
2019,02,06,04,09,00,88.9,,,,,,,,,,,,,,
2019,02,06,04,10,00,74.7,,,,,,,,,,,,,,
2019,02,06,04,11,00,79.2,,,,,,,,,,,,,,
2019,02,06,04,12,00,140.2,,,,,,,,,,,,,,
2019,02,06,04,13,00,141.7,,,,,,,,,,,,,,
2019,02,06,04,14,00,78.9,,,,,,,,,,,,,,
2019,02,06,04,15,00,73.6,,,,,,,,,,,,,,
2019,02,06,04,16,00,89.5,,,,,,,,,,,,,,
2019,02,06,04,17,00,105.7,,,,,,,,,,,,,,
2019,02,06,04,18,00,99.4,,,,,,,,,,,,,,
2019,02,06,04,19,00,99.3,,,,,,,,,,,,,,
2019,02,06,04,20,00,91.0,,,,,,,,,,,,,,
2019,02,06,04,21,00,76.5,,,,,,,,,,,,,,
2019,02,06,04,22,00,74.0,,,,,,,,,,,,,,
2019,02,06,04,23,00,72.7,,,,,,,,,,,,,,
2019,02,06,04,24,00,73.1,,,,,,,,,,,,,,
2019,02,06,04,25,00,70.3,,,,,,,,,,,,,,
2019,02,06,04,26,00,67.7,,,,,,,,,,,,,,
2019,02,06,04,27,00,69.9,,,,,,,,,,,,,,
2019,02,06,04,28,00,73.8,,,,,,,,,,,,,,
2019,02,06,04,29,00,84.2,,,,,,,,,,,,,,
2019,02,06,04,30,00,81.8,,,,,,,,,,,,,,
2019,02,06,04,31,00,73.7,,,,,,,,,,,,,,
2019,02,06,04,32,00,71.7,,,,,,,,,,,,,,
2019,02,06,04,33,00,61.9,,,,,,,,,,,,,,
2019,02,06,04,34,00,66.2,,,,,,,,,,,,,,
2019,02,06,04,35,00,66.5,,,,,,,,,,,,,,
2019,02,06,04,36,00,67.4,,,,,,,,,,,,,,
2019,02,06,04,37,00,69.9,,,,,,,,,,,,,,
2019,02,06,04,38,00,71.4,,,,,,,,,,,,,,
2019,02,06,04,39,00,73.7,,,,,,,,,,,,,,
2019,02,06,04,40,00,69.6,,,,,,,,,,,,,,
2019,02,06,04,41,00,71.8,,,,,,,,,,,,,,
2019,02,06,04,42,00,64.9,,,,,,,,,,,,,,
2019,02,06,04,43,00,62.9,,,,,,,,,,,,,,
2019,02,06,04,44,00,62.7,,,,,,,,,,,,,,
2019,02,06,04,45,00,63.9,,,,,,,,,,,,,,
2019,02,06,04,46,00,69.8,,,,,,,,,,,,,,
2019,02,06,04,47,00,74.6,,,,,,,,,,,,,,
2019,02,06,04,48,00,69.8,,,,,,,,,,,,,,
2019,02,06,04,49,00,70.3,,,,,,,,,,,,,,
2019,02,06,04,50,00,69.8,,,,,,,,,,,,,,
2019,02,06,04,51,00,64.5,,,,,,,,,,,,,,
2019,02,06,04,52,00,72.3,,,,,,,,,,,,,,
2019,02,06,04,53,00,71.0,,,,,,,,,,,,,,
2019,02,06,04,54,00,64.8,,,,,,,,,,,,,,
2019,02,06,04,55,00,62.8,,,,,,,,,,,,,,
2019,02,06,04,56,00,62.9,,,,,,,,,,,,,,
2019,02,06,04,57,00,70.5,,,,,,,,,,,,,,
2019,02,06,04,58,00,76.4,,,,,,,,,,,,,,
2019,02,06,04,59,00,74.3,,,,,,,,,,,,,,
2019,02,06,05,00,00,76.0,,,,,,,,,,,,,,
2019,02,06,05,01,00,76.8,,,,,,,,,,,,,,
2019,02,06,05,02,00,71.4,,,,,,,,,,,,,,
2019,02,06,05,03,00,63.3,,,,,,,,,,,,,,
2019,02,06,05,04,00,57.4,,,,,,,,,,,,,,
2019,02,06,05,05,00,54.7,,,,,,,,,,,,,,
2019,02,06,05,06,00,52.3,,,,,,,,,,,,,,
2019,02,06,05,07,00,56.6,,,,,,,,,,,,,,
2019,02,06,05,08,00,58.8,,,,,,,,,,,,,,
2019,02,06,05,09,00,65.3,,,,,,,,,,,,,,
2019,02,06,05,10,00,60.1,,,,,,,,,,,,,,
2019,02,06,05,11,00,73.6,,,,,,,,,,,,,,
2019,02,06,05,12,00,78.6,,,,,,,,,,,,,,
2019,02,06,05,13,00,82.7,,,,,,,,,,,,,,
2019,02,06,05,14,00,83.9,,,,,,,,,,,,,,
2019,02,06,05,15,00,70.7,,,,,,,,,,,,,,
2019,02,06,05,16,00,68.6,,,,,,,,,,,,,,
2019,02,06,05,17,00,67.7,,,,,,,,,,,,,,
2019,02,06,05,18,00,60.0,,,,,,,,,,,,,,
2019,02,06,05,19,00,67.7,,,,,,,,,,,,,,
2019,02,06,05,20,00,79.0,,,,,,,,,,,,,,
2019,02,06,05,21,00,88.6,,,,,,,,,,,,,,
2019,02,06,05,22,00,84.8,,,,,,,,,,,,,,
2019,02,06,05,23,00,77.5,,,,,,,,,,,,,,
2019,02,06,05,24,00,71.9,,,,,,,,,,,,,,
2019,02,06,05,25,00,78.6,,,,,,,,,,,,,,
2019,02,06,05,26,00,84.8,,,,,,,,,,,,,,
2019,02,06,05,27,00,82.0,,,,,,,,,,,,,,
2019,02,06,05,28,00,73.3,,,,,,,,,,,,,,
2019,02,06,05,29,00,74.2,,,,,,,,,,,,,,
2019,02,06,05,30,00,73.1,,,,,,,,,,,,,,
2019,02,06,05,31,00,73.3,,,,,,,,,,,,,,
2019,02,06,05,32,00,78.0,,,,,,,,,,,,,,
2019,02,06,05,33,00,79.3,,,,,,,,,,,,,,
2019,02,06,05,34,00,78.3,,,,,,,,,,,,,,
2019,02,06,05,35,00,79.3,,,,,,,,,,,,,,
2019,02,06,05,36,00,78.8,,,,,,,,,,,,,,
2019,02,06,05,37,00,77.1,,,,,,,,,,,,,,
2019,02,06,05,38,00,76.9,,,,,,,,,,,,,,
2019,02,06,05,39,00,71.0,,,,,,,,,,,,,,
2019,02,06,05,40,00,72.3,,,,,,,,,,,,,,
2019,02,06,05,41,00,86.9,,,,,,,,,,,,,,
2019,02,06,05,42,00,79.4,,,,,,,,,,,,,,
2019,02,06,05,43,00,79.3,,,,,,,,,,,,,,
2019,02,06,05,44,00,77.4,,,,,,,,,,,,,,
2019,02,06,05,45,00,71.6,,,,,,,,,,,,,,
2019,02,06,05,46,00,74.7,,,,,,,,,,,,,,
2019,02,06,05,47,00,80.3,,,,,,,,,,,,,,
2019,02,06,05,48,00,98.6,,,,,,,,,,,,,,
2019,02,06,05,49,00,100.8,,,,,,,,,,,,,,
2019,02,06,05,50,00,95.1,,,,,,,,,,,,,,
2019,02,06,05,51,00,82.2,,,,,,,,,,,,,,
2019,02,06,05,52,00,73.2,,,,,,,,,,,,,,
2019,02,06,05,53,00,75.9,,,,,,,,,,,,,,
2019,02,06,05,54,00,83.5,,,,,,,,,,,,,,
2019,02,06,05,55,00,90.2,,,,,,,,,,,,,,
2019,02,06,05,56,00,90.5,,,,,,,,,,,,,,
2019,02,06,05,57,00,100.7,,,,,,,,,,,,,,
2019,02,06,05,58,00,91.2,,,,,,,,,,,,,,
2019,02,06,05,59,00,77.3,,,,,,,,,,,,,,
2019,02,06,06,00,00,76.4,,,,,,,,,,,,,,
2019,02,06,06,01,00,78.5,,,,,,,,,,,,,,
2019,02,06,06,02,00,78.1,,,,,,,,,,,,,,
2019,02,06,06,03,00,75.7,,,,,,,,,,,,,,
2019,02,06,06,04,00,76.2,,,,,,,,,,,,,,
2019,02,06,06,05,00,75.6,,,,,,,,,,,,,,
2019,02,06,06,06,00,77.4,,,,,,,,,,,,,,
2019,02,06,06,07,00,80.6,,,,,,,,,,,,,,
2019,02,06,06,08,00,80.6,,,,,,,,,,,,,,
2019,02,06,06,09,00,78.3,,,,,,,,,,,,,,
2019,02,06,06,10,00,73.1,,,,,,,,,,,,,,
2019,02,06,06,11,00,77.5,,,,,,,,,,,,,,
2019,02,06,06,12,00,79.1,,,,,,,,,,,,,,
2019,02,06,06,13,00,74.8,,,,,,,,,,,,,,
2019,02,06,06,14,00,79.8,,,,,,,,,,,,,,
2019,02,06,06,15,00,93.4,,,,,,,,,,,,,,
2019,02,06,06,16,00,106.5,,,,,,,,,,,,,,
2019,02,06,06,17,00,89.7,,,,,,,,,,,,,,
2019,02,06,06,18,00,75.0,,,,,,,,,,,,,,
2019,02,06,06,19,00,76.5,,,,,,,,,,,,,,
2019,02,06,06,20,00,78.8,,,,,,,,,,,,,,
2019,02,06,06,21,00,97.0,,,,,,,,,,,,,,
2019,02,06,06,22,00,109.7,,,,,,,,,,,,,,
2019,02,06,06,23,00,110.6,,,,,,,,,,,,,,
2019,02,06,06,24,00,89.4,,,,,,,,,,,,,,
2019,02,06,06,25,00,83.2,,,,,,,,,,,,,,
2019,02,06,06,26,00,92.4,,,,,,,,,,,,,,
2019,02,06,06,27,00,104.3,,,,,,,,,,,,,,
2019,02,06,06,28,00,99.3,,,,,,,,,,,,,,
2019,02,06,06,29,00,76.5,,,,,,,,,,,,,,
2019,02,06,06,30,00,73.8,,,,,,,,,,,,,,
2019,02,06,06,31,00,73.9,,,,,,,,,,,,,,
2019,02,06,06,32,00,76.0,,,,,,,,,,,,,,
2019,02,06,06,33,00,76.1,,,,,,,,,,,,,,
2019,02,06,06,34,00,77.9,,,,,,,,,,,,,,
2019,02,06,06,35,00,82.0,,,,,,,,,,,,,,
2019,02,06,06,36,00,79.3,,,,,,,,,,,,,,
2019,02,06,06,37,00,79.0,,,,,,,,,,,,,,
2019,02,06,06,38,00,80.5,,,,,,,,,,,,,,
2019,02,06,06,39,00,87.7,,,,,,,,,,,,,,
2019,02,06,06,40,00,78.1,,,,,,,,,,,,,,
2019,02,06,06,41,00,83.6,,,,,,,,,,,,,,
2019,02,06,06,42,00,80.5,,,,,,,,,,,,,,
2019,02,06,06,43,00,75.7,,,,,,,,,,,,,,
2019,02,06,06,44,00,75.0,,,,,,,,,,,,,,
2019,02,06,06,45,00,79.7,,,,,,,,,,,,,,
2019,02,06,06,46,00,82.9,,,,,,,,,,,,,,
2019,02,06,06,47,00,83.2,,,,,,,,,,,,,,
2019,02,06,06,48,00,80.9,,,,,,,,,,,,,,
2019,02,06,06,49,00,80.4,,,,,,,,,,,,,,
2019,02,06,06,50,00,79.5,,,,,,,,,,,,,,
2019,02,06,06,51,00,78.0,,,,,,,,,,,,,,
2019,02,06,06,52,00,85.8,,,,,,,,,,,,,,
2019,02,06,06,53,00,96.3,,,,,,,,,,,,,,
2019,02,06,06,54,00,99.2,,,,,,,,,,,,,,
2019,02,06,06,55,00,104.8,,,,,,,,,,,,,,
2019,02,06,06,56,00,97.6,,,,,,,,,,,,,,
2019,02,06,06,57,00,93.0,,,,,,,,,,,,,,
2019,02,06,06,58,00,110.5,,,,,,,,,,,,,,
2019,02,06,06,59,00,118.2,,,,,,,,,,,,,,
2019,02,06,07,00,00,105.8,,,,,,,,,,,,,,
2019,02,06,07,01,00,98.7,,,,,,,,,,,,,,
2019,02,06,07,02,00,100.8,,,,,,,,,,,,,,
2019,02,06,07,03,00,105.3,,,,,,,,,,,,,,
2019,02,06,07,04,00,106.2,,,,,,,,,,,,,,
2019,02,06,07,05,00,106.9,,,,,,,,,,,,,,
2019,02,06,07,06,00,96.3,,,,,,,,,,,,,,
2019,02,06,07,07,00,96.1,,,,,,,,,,,,,,
2019,02,06,07,08,00,87.9,,,,,,,,,,,,,,
2019,02,06,07,09,00,97.7,,,,,,,,,,,,,,
2019,02,06,07,10,00,107.2,,,,,,,,,,,,,,
2019,02,06,07,11,00,113.5,,,,,,,,,,,,,,
2019,02,06,07,12,00,109.7,,,,,,,,,,,,,,
2019,02,06,07,13,00,106.4,,,,,,,,,,,,,,
2019,02,06,07,14,00,113.6,,,,,,,,,,,,,,
2019,02,06,07,15,00,123.6,,,,,,,,,,,,,,
2019,02,06,07,16,00,120.6,,,,,,,,,,,,,,
2019,02,06,07,17,00,151.5,,,,,,,,,,,,,,
2019,02,06,07,18,00,156.4,,,,,,,,,,,,,,
2019,02,06,07,19,00,125.6,,,,,,,,,,,,,,
2019,02,06,07,20,00,129.1,,,,,,,,,,,,,,
2019,02,06,07,21,00,128.9,,,,,,,,,,,,,,
2019,02,06,07,22,00,124.0,,,,,,,,,,,,,,
2019,02,06,07,23,00,115.1,,,,,,,,,,,,,,
2019,02,06,07,24,00,116.5,,,,,,,,,,,,,,
2019,02,06,07,25,00,117.4,,,,,,,,,,,,,,
2019,02,06,07,26,00,98.3,,,,,,,,,,,,,,
2019,02,06,07,27,00,80.7,,,,,,,,,,,,,,
2019,02,06,07,28,00,82.4,,,,,,,,,,,,,,
2019,02,06,07,29,00,97.0,,,,,,,,,,,,,,
2019,02,06,07,30,00,111.9,,,,,,,,,,,,,,
2019,02,06,07,31,00,125.2,,,,,,,,,,,,,,
2019,02,06,07,32,00,136.0,,,,,,,,,,,,,,
2019,02,06,07,33,00,126.6,,,,,,,,,,,,,,
2019,02,06,07,34,00,117.5,,,,,,,,,,,,,,
2019,02,06,07,35,00,113.5,,,,,,,,,,,,,,
2019,02,06,07,36,00,109.6,,,,,,,,,,,,,,
2019,02,06,07,37,00,119.9,,,,,,,,,,,,,,
2019,02,06,07,38,00,121.4,,,,,,,,,,,,,,
2019,02,06,07,39,00,121.5,,,,,,,,,,,,,,
2019,02,06,07,40,00,141.0,,,,,,,,,,,,,,
2019,02,06,07,41,00,112.6,,,,,,,,,,,,,,
2019,02,06,07,42,00,102.5,,,,,,,,,,,,,,
2019,02,06,07,43,00,103.3,,,,,,,,,,,,,,
2019,02,06,07,44,00,105.9,,,,,,,,,,,,,,
2019,02,06,07,45,00,107.1,,,,,,,,,,,,,,
2019,02,06,07,46,00,113.6,,,,,,,,,,,,,,
2019,02,06,07,47,00,108.0,,,,,,,,,,,,,,
2019,02,06,07,48,00,112.2,,,,,,,,,,,,,,
2019,02,06,07,49,00,122.9,,,,,,,,,,,,,,
2019,02,06,07,50,00,137.1,,,,,,,,,,,,,,
2019,02,06,07,51,00,129.2,,,,,,,,,,,,,,
2019,02,06,07,52,00,193.9,,,,,,,,,,,,,,
2019,02,06,07,53,00,245.3,,,,,,,,,,,,,,
2019,02,06,07,54,00,262.7,,,,,,,,,,,,,,
2019,02,06,07,55,00,216.0,,,,,,,,,,,,,,
2019,02,06,07,56,00,190.6,,,,,,,,,,,,,,
2019,02,06,07,57,00,179.1,,,,,,,,,,,,,,
2019,02,06,07,58,00,161.3,,,,,,,,,,,,,,
2019,02,06,07,59,00,142.1,,,,,,,,,,,,,,
2019,02,06,08,00,00,158.4,,,,,,,,,,,,,,
2019,02,06,08,01,00,173.1,,,,,,,,,,,,,,
2019,02,06,08,02,00,156.0,,,,,,,,,,,,,,
2019,02,06,08,03,00,174.8,,,,,,,,,,,,,,
2019,02,06,08,04,00,194.1,,,,,,,,,,,,,,
2019,02,06,08,05,00,191.8,,,,,,,,,,,,,,
2019,02,06,08,06,00,187.8,,,,,,,,,,,,,,
2019,02,06,08,07,00,191.6,,,,,,,,,,,,,,
2019,02,06,08,08,00,202.5,,,,,,,,,,,,,,
2019,02,06,08,09,00,191.4,,,,,,,,,,,,,,
2019,02,06,08,10,00,182.7,,,,,,,,,,,,,,
2019,02,06,08,11,00,203.1,,,,,,,,,,,,,,
2019,02,06,08,12,00,212.7,,,,,,,,,,,,,,
2019,02,06,08,13,00,192.2,,,,,,,,,,,,,,
2019,02,06,08,14,00,177.2,,,,,,,,,,,,,,
2019,02,06,08,15,00,165.5,,,,,,,,,,,,,,
2019,02,06,08,16,00,164.4,,,,,,,,,,,,,,
2019,02,06,08,17,00,157.8,,,,,,,,,,,,,,
2019,02,06,08,18,00,165.2,,,,,,,,,,,,,,
2019,02,06,08,19,00,209.6,,,,,,,,,,,,,,
2019,02,06,08,20,00,306.2,,,,,,,,,,,,,,
2019,02,06,08,21,00,328.9,,,,,,,,,,,,,,
2019,02,06,08,22,00,261.5,,,,,,,,,,,,,,
2019,02,06,08,23,00,218.3,,,,,,,,,,,,,,
2019,02,06,08,24,00,245.1,,,,,,,,,,,,,,
2019,02,06,08,25,00,296.6,,,,,,,,,,,,,,
2019,02,06,08,26,00,315.2,,,,,,,,,,,,,,
2019,02,06,08,27,00,259.9,,,,,,,,,,,,,,
2019,02,06,08,28,00,297.5,,,,,,,,,,,,,,
2019,02,06,08,29,00,298.0,,,,,,,,,,,,,,
2019,02,06,08,30,00,288.1,,,,,,,,,,,,,,
2019,02,06,08,31,00,250.9,,,,,,,,,,,,,,
2019,02,06,08,32,00,237.6,,,,,,,,,,,,,,
2019,02,06,08,33,00,276.7,,,,,,,,,,,,,,
2019,02,06,08,34,00,401.5,,,,,,,,,,,,,,
2019,02,06,08,35,00,326.8,,,,,,,,,,,,,,
2019,02,06,08,36,00,264.0,,,,,,,,,,,,,,
2019,02,06,08,37,00,238.7,,,,,,,,,,,,,,
2019,02,06,08,38,00,219.1,,,,,,,,,,,,,,
2019,02,06,08,39,00,265.7,,,,,,,,,,,,,,
2019,02,06,08,40,00,345.3,,,,,,,,,,,,,,
2019,02,06,08,41,00,274.1,,,,,,,,,,,,,,
2019,02,06,08,42,00,249.9,,,,,,,,,,,,,,
2019,02,06,08,43,00,255.0,,,,,,,,,,,,,,
2019,02,06,08,44,00,294.9,,,,,,,,,,,,,,
2019,02,06,08,45,00,308.4,,,,,,,,,,,,,,
2019,02,06,08,46,00,323.8,,,,,,,,,,,,,,
2019,02,06,08,47,00,329.1,,,,,,,,,,,,,,
2019,02,06,08,48,00,287.7,,,,,,,,,,,,,,
2019,02,06,08,49,00,307.8,,,,,,,,,,,,,,
2019,02,06,08,50,00,288.7,,,,,,,,,,,,,,
2019,02,06,08,51,00,263.9,,,,,,,,,,,,,,
2019,02,06,08,52,00,254.6,,,,,,,,,,,,,,
2019,02,06,08,53,00,230.7,,,,,,,,,,,,,,
2019,02,06,08,54,00,217.0,,,,,,,,,,,,,,
2019,02,06,08,55,00,220.4,,,,,,,,,,,,,,
2019,02,06,08,56,00,239.8,,,,,,,,,,,,,,
2019,02,06,08,57,00,271.5,,,,,,,,,,,,,,
2019,02,06,08,58,00,280.6,,,,,,,,,,,,,,
2019,02,06,08,59,00,297.8,,,,,,,,,,,,,,
2019,02,06,09,00,00,274.4,,,,,,,,,,,,,,
2019,02,06,09,01,00,339.7,,,,,,,,,,,,,,
2019,02,06,09,02,00,436.8,,,,,,,,,,,,,,
2019,02,06,09,03,00,357.6,,,,,,,,,,,,,,
2019,02,06,09,04,00,373.8,,,,,,,,,,,,,,
2019,02,06,09,05,00,434.1,,,,,,,,,,,,,,
2019,02,06,09,06,00,373.7,,,,,,,,,,,,,,
2019,02,06,09,07,00,272.0,,,,,,,,,,,,,,
2019,02,06,09,08,00,222.3,,,,,,,,,,,,,,
2019,02,06,09,09,00,216.7,,,,,,,,,,,,,,
2019,02,06,09,10,00,278.0,,,,,,,,,,,,,,
2019,02,06,09,11,00,320.8,,,,,,,,,,,,,,
2019,02,06,09,12,00,273.1,,,,,,,,,,,,,,
2019,02,06,09,13,00,264.4,,,,,,,,,,,,,,
2019,02,06,09,14,00,254.6,,,,,,,,,,,,,,
2019,02,06,09,15,00,292.1,,,,,,,,,,,,,,
2019,02,06,09,16,00,369.6,,,,,,,,,,,,,,
2019,02,06,09,17,00,385.9,,,,,,,,,,,,,,
2019,02,06,09,18,00,387.6,,,,,,,,,,,,,,
2019,02,06,09,19,00,379.0,,,,,,,,,,,,,,
2019,02,06,09,20,00,346.4,,,,,,,,,,,,,,
2019,02,06,09,21,00,432.8,,,,,,,,,,,,,,
2019,02,06,09,22,00,442.5,,,,,,,,,,,,,,
2019,02,06,09,23,00,386.7,,,,,,,,,,,,,,
2019,02,06,09,24,00,393.9,,,,,,,,,,,,,,
2019,02,06,09,25,00,403.4,,,,,,,,,,,,,,
2019,02,06,09,26,00,416.3,,,,,,,,,,,,,,
2019,02,06,09,27,00,427.3,,,,,,,,,,,,,,
2019,02,06,09,28,00,397.2,,,,,,,,,,,,,,
2019,02,06,09,29,00,502.9,,,,,,,,,,,,,,
2019,02,06,09,30,00,410.2,,,,,,,,,,,,,,
2019,02,06,09,31,00,303.8,,,,,,,,,,,,,,
2019,02,06,09,32,00,286.8,,,,,,,,,,,,,,
2019,02,06,09,33,00,298.2,,,,,,,,,,,,,,
2019,02,06,09,34,00,263.3,,,,,,,,,,,,,,
2019,02,06,09,35,00,237.3,,,,,,,,,,,,,,
2019,02,06,09,36,00,248.6,,,,,,,,,,,,,,
2019,02,06,09,37,00,314.6,,,,,,,,,,,,,,
2019,02,06,09,38,00,337.5,,,,,,,,,,,,,,
2019,02,06,09,39,00,383.5,,,,,,,,,,,,,,
2019,02,06,09,40,00,368.2,,,,,,,,,,,,,,
2019,02,06,09,41,00,268.3,,,,,,,,,,,,,,
2019,02,06,09,42,00,244.4,,,,,,,,,,,,,,
2019,02,06,09,43,00,240.0,,,,,,,,,,,,,,
2019,02,06,09,44,00,231.5,,,,,,,,,,,,,,
2019,02,06,09,45,00,237.0,,,,,,,,,,,,,,
2019,02,06,09,46,00,199.7,,,,,,,,,,,,,,
2019,02,06,09,47,00,327.7,,,,,,,,,,,,,,
2019,02,06,09,48,00,323.5,,,,,,,,,,,,,,
2019,02,06,09,49,00,242.7,,,,,,,,,,,,,,
2019,02,06,09,50,00,178.2,,,,,,,,,,,,,,
2019,02,06,09,51,00,165.4,,,,,,,,,,,,,,
2019,02,06,09,52,00,182.8,,,,,,,,,,,,,,
2019,02,06,09,53,00,219.3,,,,,,,,,,,,,,